Location: Fort Wayne
(41.1310°N, 85.1290°W)
Time: 13:28:56
(UTC-04:00)

COSMOS 2428 - Visible Passes

Search period start: 17 August 2017 00:00
Search period end: 27 August 2017 00:00
Orbit: 844 x 859 km, 70.9° (Epoch: 17 August)

Date Brightness Start Highest point End Pass type
(mag) Time Alt. Az. Time Alt. Az. Time Alt. Az.
17 Aug 3.6 00:42:03 45° NW 00:42:03 45° NW 00:47:10 10° NNE visible
17 Aug 4.2 22:47:38 21° ENE 22:47:38 21° ENE 22:50:12 10° NE visible
18 Aug 3.5 00:29:36 46° WNW 00:29:36 46° WNW 00:35:03 10° NNE visible
18 Aug 4.0 22:35:04 23° ENE 22:35:04 23° ENE 22:38:05 10° NE visible
19 Aug 3.5 00:17:01 45° WNW 00:17:24 46° WNW 00:22:55 10° NNE visible
19 Aug 3.8 22:22:18 24° E 22:22:18 24° E 22:25:57 10° NE visible
20 Aug 3.6 00:04:15 41° W 00:05:16 46° WNW 00:10:47 10° NNE visible
20 Aug 3.7 22:09:18 26° E 22:09:18 26° E 22:13:50 10° NE visible
20 Aug 3.6 23:51:12 34° WSW 23:53:09 46° WNW 23:58:39 10° NNE visible
21 Aug 3.6 21:55:48 24° ESE 21:57:03 26° ESE 22:01:41 10° NE visible
21 Aug 3.6 23:37:40 22° WSW 23:41:01 45° WNW 23:46:31 10° NNE visible
22 Aug 3.6 21:41:07 13° SSE 21:44:56 26° ESE 21:49:34 10° NE visible
22 Aug 3.7 23:23:25 10° SW 23:28:53 45° WNW 23:34:23 10° NNE visible
23 Aug 3.6 21:28:09 10° SSE 21:32:47 26° ESE 21:37:26 10° NE visible
23 Aug 3.7 23:11:17 10° SW 23:16:45 45° WNW 23:22:15 10° NNE visible
24 Aug 5.6 06:23:28 10° NNE 06:26:41 15° NE 06:29:55 10° E visible
24 Aug 3.6 21:16:01 10° SSE 21:20:40 26° ESE 21:25:18 10° NE visible
24 Aug 3.7 22:59:09 10° SW 23:04:38 45° WNW 23:10:08 10° NNE visible
25 Aug 5.7 06:11:20 10° NNE 06:14:34 15° NE 06:17:47 10° E visible
25 Aug 3.6 21:03:53 10° SSE 21:08:31 26° ESE 21:13:11 10° NE visible
25 Aug 3.8 22:47:01 10° SW 22:52:29 45° WNW 22:57:59 10° NNE visible
26 Aug 5.7 05:59:12 10° NNE 06:02:26 15° NE 06:05:39 10° E visible
26 Aug 3.6 20:51:44 10° SSE 20:56:24 26° ESE 21:01:02 10° NE visible
26 Aug 3.8 22:34:53 10° SW 22:40:21 45° WNW 22:45:51 10° NNE visible
